Regional Weather Roundup
Issued by NWS

Home | Current Version | Previous Version | Text Only | Print | Product List | Glossary Off
Versions: 1 2 3 4 5 6 7 8 9 10 11 12 13 14 15 16 17 18 19 20 21 22 23 24 25 26 27 28 29 30 31 32 33 34 35 36 37 38 39 40 41 42 43 44 45 46 47 48 49 50

000
ASUS43 KBIS 261520
RWRND

NORTH DAKOTA REGIONAL WEATHER ROUNDUP
NATIONAL WEATHER SERVICE BISMARCK ND
900 AM CST FRI DEC 26 2014

NOTE: "FAIR" INDICATES FEW OR NO CLOUDS BELOW 12,000 FEET WITH NO
SIGNIFICANT WEATHER AND/OR OBSTRUCTIONS TO VISIBILITY.


NDZ001>003-009>011-017-261600-
NORTHWEST NORTH DAKOTA

CITY           SKY/WX    TMP DP  RH WIND       PRES   REMARKS
WILLISTON      CLOUDY    13   8  81 CALM      30.16R
MINOT          CLOUDY     8   3  80 W9        30.18R WCI  -5
MINOT AFB      CLOUDY     8   6  89 NW8       30.18S WCI  -4
$$

NDZ018>021-031>035-040>046-261600-
SOUTHWEST NORTH DAKOTA

CITY           SKY/WX    TMP DP  RH WIND       PRES   REMARKS
BISMARCK       CLOUDY    13   8  81 N10       30.19R WCI   0
DICKINSON      CLOUDY    18  11  74 NW7       30.09R WCI   9
GARRISON         N/A      9   5  84 NW16      30.16R WCI  -8
HETTINGER ARPT CLOUDY    15  11  83 CALM      30.12R
$$

NDZ004>008-012>016-024-026-027-054-261600-
NORTHEAST NORTH DAKOTA

CITY           SKY/WX    TMP DP  RH WIND       PRES   REMARKS
GRAND FORKS    CLOUDY    23  18  81 NW12      30.16R WCI  12
GRND FRKS AFB  FLURRIES  21  21 100 N6        30.17R WCI  14
DEVILS LAKE    CLOUDY    10   7  85 NW15      30.15R WCI  -6
$$

NDZ022-023-025-028>030-036>039-047>053-261600-
SOUTHEAST NORTH DAKOTA

CITY           SKY/WX    TMP DP  RH WIND       PRES   REMARKS
FARGO          CLOUDY    24  18  77 N13       30.14R WCI  12
JAMESTOWN      CLOUDY    16  12  84 NW14      30.15R WCI   2
$$



USA.gov is the U.S. government's official web portal to all federal, state and local government web resources and services.